Date String (YYYY-MM-DD hh:mm:ss) UTC,Instrument flags,absolute air pressure of the measurement (hPa),sample flow rate (lpm),inlet stack bypass flow (lpm),air temperature of the measurement (°C),ambient temperature measured by the external sensor (°C),aerosol sample conditioner tube jacket temperature (°C),OPC LED temperature (°C),internal box temperature (°C),relative humidity of the measurement (%),span deviation,mass concentration of particles derived from Lorenz-Mie calculation of OPC scattering (μg/m³),mass concentration of particles derived from Lorenz-Mie calculation of OPC scattering (μg/m³),mass concentration of particles derived from Lorenz-Mie calculation of OPC scattering (μg/m³)
DateTimeUTC,F1_M11,P_M11,Q1_M11,Q2_M11,T1_M11,T2_M11,T3_M11,T4_M11,T5_M11,U1_M11,ZSPAN_M11,X2_M11,X0_M11,X1_M11
2023-07-21 05:00:00,SystemResetWarning,0839.7,5.01,000.00,030.3,028.1,000.0,038.8,031.4,33.9,0000.0,0001.83,0004.37,0001.49
2023-07-21 05:01:00,SystemResetWarning,0839.7,5.01,000.00,030.3,028.2,000.0,038.8,031.4,34.3,0000.0,0001.81,0003.93,0001.48
2023-07-21 05:02:00,SystemResetWarning,0839.7,5.00,000.00,030.3,028.3,000.0,038.8,031.5,34.1,0000.0,0001.80,0003.03,0001.48
2023-07-21 05:03:00,SystemResetWarning,0839.7,4.99,000.00,030.3,028.4,000.0,038.8,031.5,33.9,0000.0,0001.80,0003.85,0001.48
2023-07-21 05:04:00,SystemResetWarning,0839.7,5.00,000.00,030.3,028.5,000.0,038.8,031.5,34.0,0000.0,0001.79,0004.46,0001.49
2023-07-21 05:05:00,SystemResetWarning,0839.7,4.99,000.00,030.3,028.5,000.0,038.8,031.6,34.2,0000.0,0001.81,0004.49,0001.49
2023-07-21 05:06:00,SystemResetWarning,0839.7,5.01,000.00,030.3,028.6,000.0,038.8,031.6,34.3,0000.0,0001.86,0004.30,0001.51
2023-07-21 05:07:00,SystemResetWarning,0839.6,5.00,000.00,030.3,028.6,000.0,038.8,031.6,34.4,0000.0,0001.84,0004.19,0001.51
2023-07-21 05:08:00,SystemResetWarning,0839.6,5.01,000.00,030.3,028.7,000.0,038.8,031.7,34.6,0000.0,0001.85,0004.21,0001.51
2023-07-21 05:09:00,SystemResetWarning,0839.6,5.00,000.00,030.4,028.7,000.0,038.8,031.7,34.5,0000.0,0001.87,0004.26,0001.51
2023-07-21 05:10:00,SystemResetWarning,0839.5,5.00,000.00,030.4,028.7,000.0,038.8,031.7,34.4,0000.0,0001.84,0004.19,0001.51
2023-07-21 05:11:00,SystemResetWarning,0839.5,4.99,000.00,030.4,027.9,000.0,038.7,031.7,34.3,0000.0,0001.84,0004.22,0001.50
2023-07-21 05:12:00,SystemResetWarning,0839.6,4.99,000.00,030.3,026.1,000.0,038.6,031.4,34.3,0000.0,0001.82,0004.16,0001.50
2023-07-21 05:13:00,SystemResetWarning,0839.6,5.01,000.00,030.2,025.5,000.0,038.5,031.2,34.5,0000.0,0001.78,0004.10,0001.49
2023-07-21 05:14:00,SystemResetWarning,0839.5,5.00,000.00,030.1,025.7,000.0,038.5,031.0,35.1,0000.0,0001.78,0003.33,0001.49
2023-07-21 05:15:00,SystemResetWarning,0839.6,5.03,000.00,030.1,026.0,000.0,038.5,031.0,35.0,0000.0,0001.77,0002.45,0001.49
2023-07-21 05:16:00,SystemResetWarning,0839.6,4.97,000.00,030.3,026.4,000.0,038.5,031.2,34.6,0000.0,0001.76,0002.45,0001.48
2023-07-21 05:17:00,SystemResetWarning,0839.6,5.02,000.00,030.3,026.8,000.0,038.5,031.2,34.3,0000.0,0001.72,0002.54,0001.46
2023-07-21 05:18:00,SystemResetWarning,0839.6,5.01,000.00,030.4,027.1,000.0,038.5,031.3,34.1,0000.0,0001.73,0002.80,0001.47
2023-07-21 05:19:00,SystemResetWarning,0839.7,4.99,000.00,030.4,027.4,000.0,038.5,031.3,34.0,0000.0,0001.72,0002.79,0001.47
2023-07-21 05:20:00,SystemResetWarning,0839.7,4.99,000.00,030.4,027.6,000.0,038.6,031.3,34.1,0000.0,0001.70,0003.00,0001.48
2023-07-21 05:21:00,SystemResetWarning,0839.7,4.99,000.00,030.5,027.8,000.0,038.6,031.3,34.1,0000.0,0001.71,0003.85,0001.48
2023-07-21 05:22:00,SystemResetWarning,0839.8,5.00,000.00,030.5,028.0,000.0,038.6,031.4,34.1,0000.0,0001.72,0003.86,0001.48
2023-07-21 05:23:00,SystemResetWarning,0839.8,5.00,000.00,030.5,028.1,000.0,038.7,031.4,34.3,0000.0,0001.72,0003.75,0001.50
2023-07-21 05:24:00,SystemResetWarning,0839.9,5.00,000.00,030.5,028.2,000.0,038.7,031.4,34.2,0000.0,0001.73,0003.72,0001.51
2023-07-21 05:25:00,SystemResetWarning,0839.9,5.00,000.00,030.5,028.3,000.0,038.7,031.5,34.4,0000.0,0001.73,0003.70,0001.51
2023-07-21 05:26:00,SystemResetWarning,0840.0,5.00,000.00,030.5,028.4,000.0,038.8,031.5,34.4,0000.0,0001.75,0003.81,0001.52
2023-07-21 05:27:00,SystemResetWarning,0840.0,5.01,000.00,030.5,028.5,000.0,038.8,031.5,34.3,0000.0,0001.76,0003.83,0001.54
2023-07-21 05:28:00,SystemResetWarning,0840.1,5.00,000.00,030.5,028.5,000.0,038.8,031.6,34.3,0000.0,0001.78,0003.78,0001.56
2023-07-21 05:29:00,SystemResetWarning,0840.1,4.99,000.00,030.5,028.6,000.0,038.8,031.6,34.2,0000.0,0001.77,0003.45,0001.55
2023-07-21 05:30:00,SystemResetWarning,0840.2,5.00,000.00,030.5,028.7,000.0,038.8,031.7,34.1,0000.0,0001.76,0003.48,0001.54
2023-07-21 05:31:00,SystemResetWarning,0840.2,5.00,000.00,030.6,028.7,000.0,038.8,031.7,34.1,0000.0,0001.78,0003.44,0001.53
2023-07-21 05:32:00,SystemResetWarning,0840.2,5.00,000.00,030.6,028.7,000.0,038.9,031.7,34.1,0000.0,0001.79,0002.46,0001.53
2023-07-21 05:33:00,SystemResetWarning,0840.2,5.00,000.00,030.6,028.8,000.0,038.9,031.7,34.0,0000.0,0001.79,0002.49,0001.54
2023-07-21 05:34:00,SystemResetWarning,0840.2,5.00,000.00,030.6,028.8,000.0,038.9,031.8,34.1,0000.0,0001.81,0002.55,0001.52
2023-07-21 05:35:00,SystemResetWarning,0840.1,4.99,000.00,030.6,028.0,000.0,038.8,031.7,34.2,0000.0,0001.81,0002.57,0001.51
2023-07-21 05:36:00,SystemResetWarning,0840.1,5.00,000.00,030.5,026.1,000.0,038.7,031.4,34.2,0000.0,0001.80,0002.56,0001.50
2023-07-21 05:37:00,SystemResetWarning,0840.1,5.01,000.00,030.4,025.4,000.0,038.6,031.2,34.5,0000.0,0001.79,0002.49,0001.50
2023-07-21 05:38:00,SystemResetWarning,0840.0,5.00,000.00,030.3,025.6,000.0,038.6,031.0,34.9,0000.0,0001.78,0002.46,0001.50
2023-07-21 05:39:00,SystemResetWarning,0840.0,5.00,000.00,030.2,025.9,000.0,038.6,031.0,35.3,0000.0,0001.74,0002.36,0001.48
2023-07-21 05:40:00,SystemResetWarning,0840.0,5.02,000.00,030.4,026.4,000.0,038.6,031.2,34.9,0000.0,0001.75,0002.33,0001.50
2023-07-21 05:41:00,SystemResetWarning,0840.0,4.98,000.00,030.5,026.7,000.0,038.6,031.3,34.4,0000.0,0001.75,0002.31,0001.51
2023-07-21 05:42:00,SystemResetWarning,0839.9,5.02,000.00,030.6,027.1,000.0,038.6,031.3,34.2,0000.0,0001.80,0002.38,0001.51
2023-07-21 05:43:00,SystemResetWarning,0839.9,4.99,000.00,030.7,027.4,000.0,038.7,031.4,34.0,0000.0,0001.79,0002.37,0001.51
2023-07-21 05:44:00,SystemResetWarning,0840.0,5.00,000.00,030.7,027.6,000.0,038.7,031.4,33.9,0000.0,0001.80,0002.50,0001.50
2023-07-21 05:45:00,SystemResetWarning,0840.0,5.00,000.00,030.7,027.8,000.0,038.7,031.4,33.9,0000.0,0001.79,0002.46,0001.50
2023-07-21 05:46:00,SystemResetWarning,0840.1,5.00,000.00,030.7,027.9,000.0,038.8,031.4,33.9,0000.0,0001.82,0002.50,0001.52
2023-07-21 05:47:00,SystemResetWarning,0840.1,5.00,000.00,030.7,028.1,000.0,038.8,031.5,34.0,0000.0,0001.88,0002.70,0001.54
2023-07-21 05:48:00,SystemResetWarning,0840.1,5.00,000.00,030.8,028.2,000.0,038.8,031.5,33.9,0000.0,0001.91,0002.75,0001.58
2023-07-21 05:49:00,SystemResetWarning,0840.1,5.00,000.00,030.8,028.3,000.0,038.9,031.5,33.9,0000.0,0001.97,0002.89,0001.61
2023-07-21 05:50:00,SystemResetWarning,0840.1,5.00,000.00,030.8,028.4,000.0,038.9,031.6,33.8,0000.0,0002.07,0003.26,0001.65
2023-07-21 05:51:00,SystemResetWarning,0840.2,5.00,000.00,030.8,028.4,000.0,038.9,031.6,33.8,0000.0,0002.15,0003.50,0001.68
2023-07-21 05:52:00,SystemResetWarning,0840.1,5.00,000.00,030.8,028.5,000.0,039.0,031.6,33.8,0000.0,0002.21,0003.61,0001.72
2023-07-21 05:53:00,SystemResetWarning,0840.1,4.99,000.00,030.8,028.6,000.0,039.0,031.7,33.8,0000.0,0002.19,0003.50,0001.76
2023-07-21 05:54:00,SystemResetWarning,0840.1,5.00,000.00,030.8,028.6,000.0,039.0,031.7,33.8,0000.0,0002.20,0003.45,0001.81
2023-07-21 05:55:00,SystemResetWarning,0840.1,4.99,000.00,030.8,028.6,000.0,039.0,031.7,33.7,0000.0,0002.25,0003.38,0001.87
2023-07-21 05:56:00,SystemResetWarning,0840.0,5.00,000.00,030.8,028.7,000.0,039.0,031.7,33.8,0000.0,0002.30,0003.49,0001.91
2023-07-21 05:57:00,SystemResetWarning,0840.0,5.00,000.00,030.8,028.7,000.0,039.0,031.8,33.7,0000.0,0002.35,0003.63,0001.95
2023-07-21 05:58:00,SystemResetWarning,0840.0,5.00,000.00,030.8,028.7,000.0,039.1,031.8,33.7,0000.0,0002.35,0003.61,0001.99
2023-07-21 05:59:00,SystemResetWarning,0839.9,5.00,000.00,030.8,028.7,000.0,039.1,031.8,33.6,0000.0,0002.38,0003.86,0002.00
